TLM233 ZULS-UUEE

Flight info

Callsign TLM233
Flight time 6h 33m
Altitude 38000
Route VIDUT DCT TAPUG DCT LESVI DCT PUBUR/K0848F380 DCT BALVU DCT BASAN L147 GEDSA DCT MULTA DCT MOF T750 OKSUD DCT URIDU L158 DIMGI DIMGI3E
Aircraft B738/M-SDE2E3FGHIRWXY/LB1

Departure

Time 2026-04-24 07:32
Airport Lhasa Gonggar International Airport (ZULS)

Arrival

Time 2026-04-24 14:05
Airport Sheremetyevo International Airport (UUEE)
Time Latitude Longitude Altitude Speed Heading
2026-04-24 07:04 29.29391 90.89579 11953 ft 0 kts 180°
2026-04-24 07:25 29.29396 90.89579 11953 ft 2 kts 180°
2026-04-24 07:25 29.29411 90.89579 11953 ft 2 kts 179°
2026-04-24 07:25 29.29426 90.89579 11953 ft 2 kts 180°
2026-04-24 07:25 29.29441 90.89579 11953 ft 2 kts 180°
2026-04-24 07:26 29.29456 90.89579 11953 ft 2 kts 179°
2026-04-24 07:26 29.29471 90.89578 11952 ft 2 kts 180°
2026-04-24 07:26 29.29486 90.89580 11952 ft 2 kts 201°
2026-04-24 07:26 29.29500 90.89589 11952 ft 2 kts 220°
2026-04-24 07:27 29.29510 90.89602 11952 ft 2 kts 239°
2026-04-24 07:27 29.29516 90.89618 11952 ft 2 kts 258°
2026-04-24 07:27 29.29517 90.89629 11951 ft 1 kts 270°
2026-04-24 07:27 29.29517 90.89634 11951 ft 0 kts 271°
2026-04-24 07:28 29.29517 90.89632 11951 ft 2 kts 271°
2026-04-24 07:29 29.29518 90.89584 11951 ft 9 kts 271°
2026-04-24 07:29 29.29517 90.89477 11952 ft 17 kts 268°
2026-04-24 07:29 29.29511 90.89311 11951 ft 21 kts 268°
2026-04-24 07:29 29.29586 90.89188 11953 ft 21 kts 358°
2026-04-24 07:30 29.29738 90.89204 11957 ft 15 kts
2026-04-24 07:30 29.29776 90.89256 11958 ft 10 kts 90°
2026-04-24 07:30 29.29776 90.89290 11957 ft 0 kts 91°
2026-04-24 07:30 29.29776 90.89301 11957 ft 8 kts 90°
2026-04-24 07:31 29.29783 90.89578 11952 ft 60 kts 90°
2026-04-24 07:31 29.29791 90.90260 11949 ft 109 kts 86°
2026-04-24 07:31 29.29806 90.91310 11940 ft 156 kts 89°
2026-04-24 07:31 29.29825 90.92732 11940 ft 195 kts 91°
2026-04-24 07:32 29.29856 90.94345 12172 ft 208 kts 89°
2026-04-24 07:32 29.29918 90.96025 12610 ft 213 kts 89°
2026-04-24 07:32 29.29890 90.97740 13038 ft 219 kts 96°
2026-04-24 07:32 29.29764 90.99509 13399 ft 230 kts 95°
2026-04-24 07:33 29.29690 91.01382 13795 ft 241 kts 92°
2026-04-24 07:33 29.29678 91.03349 14147 ft 255 kts 91°
2026-04-24 07:33 29.29685 91.05410 14530 ft 264 kts 91°
2026-04-24 07:33 29.29693 91.07591 14705 ft 282 kts 91°
2026-04-24 07:34 29.29699 91.09896 14957 ft 298 kts 91°
2026-04-24 07:34 29.29702 91.12292 15515 ft 301 kts 91°
2026-04-24 07:34 29.29704 91.14677 16163 ft 301 kts 91°
2026-04-24 07:34 29.29706 91.17088 16742 ft 303 kts 91°
2026-04-24 07:35 29.29708 91.19486 17294 ft 306 kts 91°
2026-04-24 07:35 29.29711 91.21939 17859 ft 308 kts 91°
2026-04-24 07:35 29.29687 91.24401 18387 ft 310 kts 96°
2026-04-24 07:35 29.29188 91.26766 18771 ft 312 kts 117°
2026-04-24 07:36 29.27988 91.28832 19138 ft 313 kts 135°
2026-04-24 07:36 29.26337 91.30461 19543 ft 314 kts 146°
2026-04-24 07:36 29.24445 91.31731 20007 ft 314 kts 159°
2026-04-24 07:36 29.22359 91.32415 20521 ft 313 kts 173°
2026-04-24 07:37 29.20169 91.32524 20831 ft 321 kts 186°
2026-04-24 07:37 29.17927 91.32053 21047 ft 332 kts 199°
2026-04-24 07:37 29.15795 91.31014 21313 ft 342 kts 210°
2026-04-24 07:37 29.13800 91.29410 21470 ft 355 kts 222°
2026-04-24 07:38 29.12088 91.27299 21687 ft 367 kts 233°
2026-04-24 07:38 29.10774 91.24791 22186 ft 369 kts 245°
2026-04-24 07:38 29.09922 91.22044 22709 ft 371 kts 256°
2026-04-24 07:38 29.09548 91.19111 23211 ft 374 kts 267°
2026-04-24 07:39 29.09686 91.16128 23711 ft 377 kts 278°
2026-04-24 07:39 29.10318 91.13239 24150 ft 382 kts 289°
2026-04-24 07:39 29.11453 91.10452 24575 ft 388 kts 300°
2026-04-24 07:39 29.13040 91.07941 25010 ft 393 kts 310°
2026-04-24 07:40 29.15020 91.05798 25470 ft 397 kts 321°
2026-04-24 07:40 29.17362 91.04067 25926 ft 401 kts 332°
2026-04-24 07:40 29.19933 91.02854 26366 ft 405 kts 342°
2026-04-24 07:40 29.22727 91.02173 26840 ft 408 kts 353°
2026-04-24 07:41 29.25557 91.01993 27306 ft 410 kts 359°
2026-04-24 07:41 29.28410 91.01982 27701 ft 413 kts 357°
2026-04-24 07:41 29.31311 91.01700 28066 ft 416 kts 349°
2026-04-24 07:41 29.34146 91.01035 28497 ft 417 kts 344°
2026-04-24 07:42 29.36930 91.00098 28883 ft 418 kts 339°
2026-04-24 07:42 29.39649 90.98869 29282 ft 419 kts 334°
2026-04-24 07:42 29.42254 90.97400 29671 ft 421 kts 330°
2026-04-24 07:42 29.44816 90.95701 30010 ft 424 kts 327°
2026-04-24 07:43 29.47283 90.93877 30388 ft 425 kts 324°
2026-04-24 07:43 29.49719 90.91952 30778 ft 426 kts 323°
2026-04-24 07:43 29.52132 90.89967 31191 ft 427 kts 322°
2026-04-24 07:43 29.54545 90.87935 31555 ft 429 kts 322°
2026-04-24 07:44 29.56945 90.85886 31865 ft 431 kts 322°
2026-04-24 07:44 29.59350 90.83818 32194 ft 434 kts 322°
2026-04-24 07:44 29.61766 90.81732 32522 ft 436 kts 321°
2026-04-24 07:44 29.64196 90.79630 32858 ft 437 kts 322°
2026-04-24 07:45 29.66613 90.77535 33197 ft 439 kts 321°
2026-04-24 07:45 29.69068 90.75405 33487 ft 442 kts 321°
2026-04-24 07:45 29.71542 90.73257 33790 ft 444 kts 321°
2026-04-24 07:45 29.74017 90.71110 34144 ft 446 kts 321°
2026-04-24 07:46 29.76491 90.68964 34459 ft 447 kts 321°
2026-04-24 07:46 29.78973 90.66808 34771 ft 449 kts 321°
2026-04-24 07:46 29.81492 90.64617 35063 ft 451 kts 321°
2026-04-24 07:46 29.83986 90.62447 35346 ft 453 kts 322°
2026-04-24 07:47 29.86512 90.60251 35661 ft 454 kts 321°
2026-04-24 07:47 29.89022 90.58067 35978 ft 454 kts 321°
2026-04-24 07:47 29.91567 90.55853 36245 ft 455 kts 321°
2026-04-24 07:47 29.94110 90.53636 36408 ft 458 kts 322°
2026-04-24 07:48 29.99266 90.49135 36583 ft 464 kts 322°
2026-04-24 07:48 30.01869 90.46863 36711 ft 466 kts 322°
2026-04-24 07:48 30.04444 90.44613 36895 ft 466 kts 322°
2026-04-24 07:49 30.07054 90.42329 37066 ft 466 kts 322°
2026-04-24 07:49 30.09675 90.40034 37245 ft 466 kts 322°
2026-04-24 07:49 30.12271 90.37760 37386 ft 466 kts 322°
2026-04-24 07:49 30.14822 90.35527 37539 ft 466 kts 322°
2026-04-24 07:50 30.17421 90.33252 37703 ft 465 kts 321°
2026-04-24 07:50 30.20005 90.30988 37834 ft 465 kts 321°
2026-04-24 07:50 30.22589 90.28721 38000 ft 464 kts 321°
2026-04-24 07:50 30.25155 90.26469 38147 ft 463 kts 321°
2026-04-24 07:51 30.27750 90.24189 38314 ft 461 kts 321°
2026-04-24 07:51 30.30297 90.21950 38498 ft 460 kts 321°
2026-04-24 07:51 30.32867 90.19687 38617 ft 459 kts 321°
2026-04-24 07:51 30.35391 90.17464 38731 ft 459 kts 321°
2026-04-24 07:52 30.37929 90.15226 38851 ft 458 kts 321°
2026-04-24 07:52 30.40484 90.12972 38944 ft 458 kts 321°
2026-04-24 07:52 30.43019 90.10733 39051 ft 457 kts 321°
2026-04-24 07:52 30.45545 90.08502 39100 ft 458 kts 321°
2026-04-24 07:53 30.50662 90.03976 39096 ft 459 kts 321°
2026-04-24 07:53 30.55709 89.99510 39104 ft 458 kts 321°
2026-04-24 07:54 30.60822 89.94978 39069 ft 458 kts 321°
2026-04-24 07:54 30.65905 89.90465 39042 ft 460 kts 321°
2026-04-24 07:55 30.71028 89.85910 39060 ft 462 kts 321°
2026-04-24 07:55 30.76136 89.81367 39046 ft 461 kts 321°
2026-04-24 07:56 30.81230 89.76830 39038 ft 462 kts 321°
2026-04-24 07:56 30.86356 89.72253 39012 ft 464 kts 321°
2026-04-24 07:57 30.91477 89.67677 39017 ft 465 kts 321°
2026-04-24 07:57 30.96619 89.63077 39011 ft 465 kts 321°
2026-04-24 07:58 31.01735 89.58495 39003 ft 465 kts 321°
2026-04-24 07:58 31.06891 89.53869 39018 ft 465 kts 321°
2026-04-24 07:59 31.12033 89.49249 39008 ft 466 kts 321°
2026-04-24 07:59 31.17168 89.44625 38998 ft 466 kts 321°
2026-04-24 08:00 31.22343 89.39960 39014 ft 466 kts 321°
2026-04-24 08:00 31.27486 89.35317 39003 ft 467 kts 321°
2026-04-24 08:01 31.32632 89.30663 38987 ft 469 kts 320°
2026-04-24 08:01 31.37791 89.25993 38981 ft 468 kts 320°
2026-04-24 08:02 31.42954 89.21316 38974 ft 468 kts 320°
2026-04-24 08:02 31.48088 89.16660 38972 ft 468 kts 320°
2026-04-24 08:03 31.53227 89.11989 38966 ft 468 kts 320°
2026-04-24 08:03 31.58406 89.07277 38948 ft 470 kts 320°
2026-04-24 08:04 31.63553 89.02583 38943 ft 470 kts 320°
2026-04-24 08:04 31.68737 88.97850 38943 ft 470 kts 320°
2026-04-24 08:05 31.73912 88.93121 38933 ft 470 kts 320°
2026-04-24 08:05 31.79067 88.88402 38933 ft 470 kts 320°
2026-04-24 08:06 31.84222 88.83678 38922 ft 470 kts 320°
2026-04-24 08:06 31.89399 88.78925 38927 ft 470 kts 320°
2026-04-24 08:07 31.94540 88.74200 38916 ft 469 kts 320°
2026-04-24 08:07 31.99686 88.69461 38910 ft 470 kts 320°
2026-04-24 08:08 32.04834 88.64712 38912 ft 469 kts 320°
2026-04-24 08:09 32.12539 88.57597 38926 ft 469 kts 320°
2026-04-24 08:09 32.17666 88.52851 38938 ft 469 kts 320°
2026-04-24 08:10 32.22791 88.48098 38933 ft 468 kts 320°
2026-04-24 08:10 32.27906 88.43350 38949 ft 467 kts 320°
2026-04-24 08:11 32.33043 88.38576 38947 ft 466 kts 320°
2026-04-24 08:11 32.38119 88.33850 38950 ft 466 kts 320°
2026-04-24 08:12 32.43243 88.29069 38954 ft 466 kts 320°
2026-04-24 08:12 32.48323 88.24326 38956 ft 466 kts 320°
2026-04-24 08:13 32.53422 88.19558 38958 ft 465 kts 320°
2026-04-24 08:13 32.58500 88.14804 38961 ft 465 kts 320°
2026-04-24 08:14 32.63595 88.10026 38973 ft 465 kts 320°
2026-04-24 08:14 32.68682 88.05248 38980 ft 465 kts 320°
2026-04-24 08:15 32.73764 88.00468 38986 ft 465 kts 320°
2026-04-24 08:15 32.78812 87.95711 38990 ft 464 kts 320°
2026-04-24 08:16 32.83888 87.90923 38991 ft 463 kts 320°
2026-04-24 08:16 32.88905 87.86183 38989 ft 463 kts 320°
2026-04-24 08:17 32.93935 87.81425 38994 ft 463 kts 319°
2026-04-24 08:17 32.98990 87.76634 38995 ft 462 kts 320°
2026-04-24 08:18 33.04039 87.71841 38981 ft 463 kts 320°
2026-04-24 08:18 33.09099 87.67032 38984 ft 462 kts 320°
2026-04-24 08:19 33.14108 87.62264 38986 ft 462 kts 320°
2026-04-24 08:19 33.19168 87.57437 38979 ft 462 kts 320°
2026-04-24 08:20 33.24151 87.52679 38979 ft 460 kts 320°
2026-04-24 08:20 33.29181 87.47868 38984 ft 460 kts 320°
2026-04-24 08:21 33.34168 87.43093 38989 ft 460 kts 320°
2026-04-24 08:21 33.39181 87.38284 38984 ft 460 kts 320°
2026-04-24 08:22 33.44153 87.33508 38976 ft 459 kts 319°
2026-04-24 08:22 33.49144 87.28705 38961 ft 459 kts 319°
2026-04-24 08:23 33.54129 87.23902 38951 ft 458 kts 319°
2026-04-24 08:23 33.59065 87.19139 38973 ft 458 kts 319°
2026-04-24 08:24 33.64048 87.14321 38986 ft 458 kts 319°
2026-04-24 08:24 33.69021 87.09508 38993 ft 457 kts 319°
2026-04-24 08:25 33.73935 87.04745 38991 ft 456 kts 319°
2026-04-24 08:25 33.78881 86.99940 38994 ft 457 kts 319°
2026-04-24 08:26 33.83818 86.95139 38998 ft 456 kts 319°
2026-04-24 08:26 33.88781 86.90307 38991 ft 456 kts 319°
2026-04-24 08:27 33.93678 86.85533 38986 ft 454 kts 319°
2026-04-24 08:27 33.98591 86.80733 38984 ft 455 kts 319°
2026-04-24 08:28 34.03539 86.75892 38981 ft 457 kts 319°
2026-04-24 08:28 34.08481 86.71049 38969 ft 457 kts 319°
2026-04-24 08:29 34.13432 86.66192 38959 ft 457 kts 319°
2026-04-24 08:29 34.18355 86.61353 38944 ft 457 kts 319°
2026-04-24 08:30 34.23255 86.56529 38931 ft 456 kts 319°
2026-04-24 08:30 34.28197 86.51656 38924 ft 456 kts 319°
2026-04-24 08:31 34.33098 86.46817 38926 ft 457 kts 319°
2026-04-24 08:31 34.38014 86.41955 38932 ft 457 kts 319°
2026-04-24 08:32 34.42981 86.37033 38934 ft 459 kts 319°
2026-04-24 08:32 34.47918 86.32135 38933 ft 458 kts 318°
2026-04-24 08:33 34.52832 86.27252 38928 ft 458 kts 318°
2026-04-24 08:33 34.57754 86.22353 38929 ft 458 kts 318°
2026-04-24 08:34 34.62683 86.17439 38936 ft 457 kts 318°
2026-04-24 08:34 34.67624 86.12504 38931 ft 458 kts 318°
2026-04-24 08:35 34.72555 86.07574 38941 ft 459 kts 318°
2026-04-24 08:35 34.77483 86.02638 38941 ft 459 kts 318°
2026-04-24 08:36 34.82401 85.97704 38948 ft 459 kts 318°
2026-04-24 08:36 34.87339 85.92741 38954 ft 459 kts 319°
2026-04-24 08:37 34.92251 85.87798 38963 ft 457 kts 319°
2026-04-24 08:37 34.97156 85.82855 38962 ft 458 kts 319°
2026-04-24 08:38 35.02046 85.77917 38964 ft 458 kts 319°
2026-04-24 08:38 35.06967 85.72942 38962 ft 458 kts 318°
2026-04-24 08:39 35.11902 85.67943 38963 ft 459 kts 318°
2026-04-24 08:39 35.16806 85.62967 38949 ft 458 kts 318°
2026-04-24 08:40 35.21695 85.57998 38951 ft 458 kts 318°
2026-04-24 08:40 35.26603 85.53002 38950 ft 457 kts 318°
2026-04-24 08:41 35.32307 85.47186 38953 ft 457 kts 318°
2026-04-24 08:41 35.36387 85.43020 38954 ft 457 kts 318°
2026-04-24 08:42 35.41266 85.38030 38959 ft 458 kts 318°
2026-04-24 08:42 35.46151 85.33022 38957 ft 458 kts 317°
2026-04-24 08:43 35.51064 85.27981 38962 ft 458 kts 317°
2026-04-24 08:43 35.55929 85.22981 38960 ft 458 kts 317°
2026-04-24 08:44 35.60820 85.17947 38959 ft 457 kts 317°
2026-04-24 08:44 35.65708 85.12907 38955 ft 457 kts 317°
2026-04-24 08:45 35.70566 85.07890 38952 ft 457 kts 317°
2026-04-24 08:45 35.75442 85.02845 38954 ft 458 kts 317°
2026-04-24 08:46 35.80320 84.97789 38947 ft 458 kts 317°
2026-04-24 08:46 35.85189 84.92735 38959 ft 458 kts 317°
2026-04-24 08:47 35.90056 84.87675 38965 ft 457 kts 317°
2026-04-24 08:47 35.94913 84.82615 38968 ft 458 kts 317°
2026-04-24 08:48 35.99778 84.77540 38967 ft 458 kts 317°
2026-04-24 08:48 36.04647 84.72451 38927 ft 459 kts 317°
2026-04-24 08:49 36.09533 84.67337 38925 ft 459 kts 317°
2026-04-24 08:49 36.14405 84.62228 38911 ft 458 kts 316°
2026-04-24 08:50 36.19249 84.57140 38904 ft 457 kts 316°
2026-04-24 08:50 36.24115 84.52020 38868 ft 458 kts 317°
2026-04-24 08:51 36.28983 84.46892 38848 ft 457 kts 316°
2026-04-24 08:51 36.33837 84.41767 38843 ft 459 kts 317°
2026-04-24 08:52 36.38703 84.36622 38835 ft 459 kts 317°
2026-04-24 08:52 36.43560 84.31478 38816 ft 459 kts 316°
2026-04-24 08:53 36.48401 84.26343 38771 ft 459 kts 316°
2026-04-24 08:53 36.53241 84.21200 38736 ft 457 kts 316°
2026-04-24 08:54 36.58091 84.16036 38665 ft 457 kts 316°
2026-04-24 08:54 36.62917 84.10889 38703 ft 457 kts 316°
2026-04-24 08:55 36.67715 84.05765 38623 ft 456 kts 316°
2026-04-24 08:55 36.72535 84.00608 38561 ft 457 kts 316°
2026-04-24 08:56 36.77373 83.95421 38498 ft 458 kts 316°
2026-04-24 08:56 36.82180 83.90260 38476 ft 457 kts 316°
2026-04-24 08:57 36.87007 83.85067 38408 ft 456 kts 316°
2026-04-24 08:57 36.91802 83.79903 38355 ft 457 kts 316°
2026-04-24 08:58 36.96592 83.74734 38335 ft 455 kts 316°
2026-04-24 08:58 37.01373 83.69566 38269 ft 454 kts 316°
2026-04-24 08:59 37.06168 83.64372 38212 ft 454 kts 316°
2026-04-24 08:59 37.10950 83.59182 38202 ft 454 kts 316°
2026-04-24 09:00 37.15743 83.53973 38161 ft 455 kts 315°
2026-04-24 09:00 37.20512 83.48782 38137 ft 454 kts 315°
2026-04-24 09:01 37.25285 83.43576 38116 ft 455 kts 315°
2026-04-24 09:01 37.30054 83.38367 38083 ft 454 kts 316°
2026-04-24 09:02 37.34855 83.33112 38076 ft 454 kts 315°
2026-04-24 09:02 37.39617 83.27892 38062 ft 454 kts 315°
2026-04-24 09:03 37.44347 83.22699 38051 ft 453 kts 315°
2026-04-24 09:03 37.49101 83.17471 38059 ft 453 kts 315°
2026-04-24 09:04 37.53855 83.12231 38044 ft 453 kts 315°
2026-04-24 09:04 37.58577 83.07017 38037 ft 453 kts 314°
2026-04-24 09:05 37.63297 83.01798 38041 ft 452 kts 314°
2026-04-24 09:05 37.68036 82.96547 38042 ft 452 kts 314°
2026-04-24 09:06 37.72730 82.91338 38041 ft 452 kts 314°
2026-04-24 09:06 37.77463 82.86076 38032 ft 452 kts 314°
2026-04-24 09:07 37.82188 82.80813 38033 ft 451 kts 314°
2026-04-24 09:07 37.89240 82.72941 38019 ft 452 kts 314°
2026-04-24 09:08 37.93980 82.67638 38015 ft 452 kts 315°
2026-04-24 09:08 37.98682 82.62369 38007 ft 451 kts 315°
2026-04-24 09:09 38.03376 82.57101 38002 ft 452 kts 315°
2026-04-24 09:09 38.08075 82.51817 38003 ft 452 kts 315°
2026-04-24 09:10 38.12788 82.46506 38005 ft 452 kts 315°
2026-04-24 09:10 38.17493 82.41196 38005 ft 451 kts 315°
2026-04-24 09:11 38.22193 82.35883 38004 ft 451 kts 315°
2026-04-24 09:11 38.26876 82.30578 37998 ft 450 kts 314°
2026-04-24 09:12 38.31539 82.25287 37988 ft 450 kts 314°
2026-04-24 09:12 38.36206 82.19981 37981 ft 451 kts 314°
2026-04-24 09:13 38.40911 82.14621 37980 ft 451 kts 314°
2026-04-24 09:13 38.45578 82.09297 37985 ft 450 kts 314°
2026-04-24 09:14 38.50221 82.03990 37988 ft 450 kts 314°
2026-04-24 09:14 38.54903 81.98629 37993 ft 450 kts 314°
2026-04-24 09:15 38.59565 81.93281 37994 ft 451 kts 314°
2026-04-24 09:15 38.64242 81.87904 37994 ft 452 kts 314°
2026-04-24 09:16 38.68904 81.82537 37987 ft 451 kts 314°
2026-04-24 09:16 38.73586 81.77138 37987 ft 451 kts 314°
2026-04-24 09:17 38.78263 81.71735 37989 ft 450 kts 314°
2026-04-24 09:17 38.82892 81.66376 37988 ft 450 kts 314°
2026-04-24 09:18 38.87544 81.60980 37991 ft 451 kts 314°
2026-04-24 09:18 38.92197 81.55573 37991 ft 451 kts 314°
2026-04-24 09:19 38.96837 81.50173 37989 ft 451 kts 314°
2026-04-24 09:19 39.01502 81.44733 37993 ft 451 kts 313°
2026-04-24 09:20 39.06911 81.38412 37994 ft 452 kts 313°
2026-04-24 09:20 39.10790 81.33870 37994 ft 451 kts 313°
2026-04-24 09:21 39.15416 81.28446 37986 ft 450 kts 313°
2026-04-24 09:21 39.20047 81.23045 37984 ft 451 kts 314°
2026-04-24 09:22 39.24785 81.17680 37976 ft 451 kts 314°
2026-04-24 09:22 39.29521 81.12349 37979 ft 451 kts 314°
2026-04-24 09:23 39.34248 81.07008 37978 ft 451 kts 314°
2026-04-24 09:23 39.38943 81.01680 37980 ft 453 kts 313°
2026-04-24 09:24 39.43687 80.96276 37979 ft 453 kts 313°
2026-04-24 09:24 39.48402 80.90896 37982 ft 451 kts 313°
2026-04-24 09:25 39.53074 80.85550 37984 ft 450 kts 313°
2026-04-24 09:25 39.57789 80.80141 37981 ft 451 kts 313°
2026-04-24 09:26 39.62462 80.74772 37983 ft 451 kts 313°
2026-04-24 09:26 39.67164 80.69363 37982 ft 450 kts 313°
2026-04-24 09:27 39.71828 80.63986 37985 ft 451 kts 313°
2026-04-24 09:27 39.76509 80.58581 37986 ft 450 kts 313°
2026-04-24 09:28 39.81198 80.53155 37987 ft 449 kts 313°
2026-04-24 09:28 39.85843 80.47770 37986 ft 450 kts 313°
2026-04-24 09:29 39.90533 80.42320 37987 ft 451 kts 313°
2026-04-24 09:29 39.95197 80.36893 37987 ft 450 kts 313°
2026-04-24 09:30 40.00612 80.30577 37985 ft 449 kts 312°
2026-04-24 09:30 40.04487 80.26046 37986 ft 450 kts 312°
2026-04-24 09:31 40.09129 80.20562 37986 ft 448 kts 310°
2026-04-24 09:31 40.13272 80.14552 37988 ft 442 kts 302°
2026-04-24 09:32 40.16779 80.08018 37987 ft 440 kts 298°
2026-04-24 09:32 40.20117 80.01306 37991 ft 439 kts 298°
2026-04-24 09:33 40.23415 79.94616 37989 ft 440 kts 298°
2026-04-24 09:33 40.26728 79.87916 37981 ft 440 kts 298°
2026-04-24 09:34 40.30056 79.81206 37976 ft 440 kts 298°
2026-04-24 09:34 40.33398 79.74466 37986 ft 442 kts 298°
2026-04-24 09:35 40.36719 79.67764 37988 ft 439 kts 297°
2026-04-24 09:35 40.40052 79.61025 38001 ft 439 kts 298°
2026-04-24 09:36 40.43367 79.54313 38006 ft 439 kts 298°
2026-04-24 09:36 40.46670 79.47601 38022 ft 439 kts 298°
2026-04-24 09:37 40.49984 79.40854 38032 ft 440 kts 298°
2026-04-24 09:37 40.53289 79.34110 38045 ft 440 kts 297°
2026-04-24 09:38 40.56611 79.27320 38068 ft 440 kts 297°
2026-04-24 09:38 40.59918 79.20550 37989 ft 439 kts 297°
2026-04-24 09:39 40.61541 79.17221 38125 ft 439 kts 297°
2026-04-24 09:39 40.63197 79.13819 38137 ft 440 kts 297°
2026-04-24 09:39 40.66491 79.07037 38160 ft 441 kts 297°
2026-04-24 09:40 40.69804 79.00208 38182 ft 440 kts 297°
2026-04-24 09:40 40.73080 78.93469 38205 ft 439 kts 298°
2026-04-24 09:41 40.76753 78.86990 38261 ft 444 kts 304°
2026-04-24 09:41 40.80710 78.80772 38287 ft 445 kts 305°
2026-04-24 09:42 40.84713 78.74582 38320 ft 444 kts 304°
2026-04-24 09:42 40.88724 78.68321 38292 ft 445 kts 304°
2026-04-24 09:43 40.92686 78.62076 38349 ft 443 kts 304°
2026-04-24 09:43 40.96627 78.55825 38337 ft 442 kts 304°
2026-04-24 09:44 41.00543 78.49590 38342 ft 441 kts 304°
2026-04-24 09:44 41.04445 78.43358 38427 ft 442 kts 304°
2026-04-24 09:45 41.08362 78.37089 38433 ft 440 kts 304°
2026-04-24 09:45 41.12250 78.30859 38447 ft 437 kts 303°
2026-04-24 09:46 41.16125 78.24632 38471 ft 437 kts 303°
2026-04-24 09:46 41.20007 78.18376 38465 ft 437 kts 303°
2026-04-24 09:47 41.23846 78.12180 38458 ft 437 kts 303°
2026-04-24 09:47 41.27721 78.05910 38462 ft 439 kts 303°
2026-04-24 09:48 41.31568 77.99681 38458 ft 435 kts 303°
2026-04-24 09:48 41.35403 77.93457 38462 ft 435 kts 303°
2026-04-24 09:49 41.39250 77.87193 38457 ft 437 kts 303°
2026-04-24 09:49 41.43085 77.80946 38465 ft 434 kts 303°
2026-04-24 09:50 41.46900 77.74714 38472 ft 435 kts 303°
2026-04-24 09:50 41.50731 77.68439 38476 ft 435 kts 303°
2026-04-24 09:51 41.54547 77.62175 38479 ft 435 kts 303°
2026-04-24 09:51 41.58367 77.55898 38475 ft 435 kts 303°
2026-04-24 09:52 41.62195 77.49592 38462 ft 434 kts 303°
2026-04-24 09:52 41.65982 77.43340 38462 ft 435 kts 303°
2026-04-24 09:53 41.69776 77.37064 38454 ft 435 kts 303°
2026-04-24 09:53 41.73587 77.30750 38445 ft 434 kts 302°
2026-04-24 09:54 41.77355 77.24487 38443 ft 435 kts 302°
2026-04-24 09:54 41.81133 77.18198 38425 ft 433 kts 302°
2026-04-24 09:55 41.84901 77.11912 38406 ft 434 kts 302°
2026-04-24 09:55 41.88678 77.05598 38392 ft 435 kts 302°
2026-04-24 09:56 41.92439 76.99297 38358 ft 434 kts 302°
2026-04-24 09:56 41.96225 76.92944 38356 ft 434 kts 302°
2026-04-24 09:57 41.99983 76.86626 38382 ft 433 kts 302°
2026-04-24 09:57 42.03721 76.80323 38374 ft 435 kts 302°
2026-04-24 09:58 42.07481 76.73974 38365 ft 435 kts 302°
2026-04-24 09:58 42.11243 76.67606 38384 ft 435 kts 302°
2026-04-24 09:59 42.15023 76.61193 38410 ft 436 kts 302°
2026-04-24 09:59 42.18802 76.54767 38431 ft 436 kts 302°
2026-04-24 10:00 42.22552 76.48381 38417 ft 436 kts 302°
2026-04-24 10:00 42.26317 76.41952 38407 ft 438 kts 302°
2026-04-24 10:01 42.30082 76.35511 38398 ft 437 kts 302°
2026-04-24 10:01 42.33826 76.29096 38394 ft 437 kts 301°
2026-04-24 10:02 42.37584 76.22639 38379 ft 437 kts 301°
2026-04-24 10:02 42.41336 76.16177 38374 ft 438 kts 301°
2026-04-24 10:03 42.45056 76.09663 38377 ft 436 kts 300°
2026-04-24 10:03 42.48598 76.03024 38366 ft 435 kts 299°
2026-04-24 10:04 42.52101 75.96323 38354 ft 436 kts 299°
2026-04-24 10:04 42.55608 75.89626 38348 ft 438 kts 300°
2026-04-24 10:05 42.59145 75.82895 38332 ft 438 kts 299°
2026-04-24 10:05 42.62662 75.76204 38304 ft 438 kts 300°
2026-04-24 10:06 42.67953 75.66129 38271 ft 438 kts 300°
2026-04-24 10:07 42.71505 75.59345 38282 ft 438 kts 300°
2026-04-24 10:07 42.75011 75.52638 38233 ft 438 kts 300°
2026-04-24 10:08 42.78540 75.45872 38222 ft 438 kts 300°
2026-04-24 10:08 42.82051 75.39123 38204 ft 437 kts 300°
2026-04-24 10:09 42.85571 75.32340 38191 ft 439 kts 299°
2026-04-24 10:09 42.89098 75.25530 38191 ft 438 kts 299°
2026-04-24 10:10 42.92598 75.18761 38179 ft 438 kts 299°
2026-04-24 10:10 42.96114 75.11942 38149 ft 439 kts 300°
2026-04-24 10:11 42.99614 75.05135 38129 ft 439 kts 300°
2026-04-24 10:11 43.03106 74.98334 38118 ft 439 kts 300°
2026-04-24 10:12 43.06608 74.91498 38114 ft 438 kts 300°
2026-04-24 10:12 43.10104 74.84656 38113 ft 439 kts 300°
2026-04-24 10:13 43.13604 74.77790 38106 ft 439 kts 300°
2026-04-24 10:13 43.17068 74.70976 38098 ft 439 kts 300°
2026-04-24 10:14 43.20551 74.64114 38092 ft 439 kts 300°
2026-04-24 10:14 43.24042 74.57219 38089 ft 439 kts 300°
2026-04-24 10:15 43.27501 74.50371 38083 ft 439 kts 300°
2026-04-24 10:15 43.30972 74.43479 38090 ft 439 kts 300°
2026-04-24 10:16 43.34433 74.36594 38088 ft 439 kts 300°
2026-04-24 10:16 43.37897 74.29687 38081 ft 439 kts 299°
2026-04-24 10:17 43.41364 74.22757 38081 ft 438 kts 299°
2026-04-24 10:17 43.44791 74.15891 38076 ft 440 kts 299°
2026-04-24 10:18 43.48267 74.08910 38073 ft 439 kts 299°
2026-04-24 10:18 43.51710 74.01984 38063 ft 439 kts 299°
2026-04-24 10:19 43.55162 73.95052 38060 ft 442 kts 300°
2026-04-24 10:19 43.59016 73.88441 38057 ft 447 kts 308°
2026-04-24 10:20 43.63490 73.82402 38055 ft 450 kts 311°
2026-04-24 10:20 43.68116 73.76566 38053 ft 449 kts 310°
2026-04-24 10:21 43.72236 73.70200 38051 ft 444 kts 303°
2026-04-24 10:21 43.75937 73.63426 38047 ft 442 kts 301°
2026-04-24 10:22 43.79542 73.56573 38049 ft 441 kts 301°
2026-04-24 10:22 43.83170 73.49678 38059 ft 442 kts 301°
2026-04-24 10:23 43.86799 73.42818 38070 ft 442 kts 301°
2026-04-24 10:23 43.90437 73.35958 38067 ft 442 kts 301°
2026-04-24 10:24 43.94069 73.29112 38062 ft 441 kts 301°
2026-04-24 10:24 43.97692 73.22269 38061 ft 442 kts 301°
2026-04-24 10:25 44.01331 73.15379 38060 ft 443 kts 301°
2026-04-24 10:25 44.04961 73.08491 38059 ft 442 kts 301°
2026-04-24 10:26 44.08575 73.01619 38060 ft 442 kts 301°
2026-04-24 10:26 44.12209 72.94691 38056 ft 442 kts 301°
2026-04-24 10:27 44.15814 72.87788 38057 ft 442 kts 301°
2026-04-24 10:27 44.19423 72.80856 38056 ft 443 kts 301°
2026-04-24 10:28 44.23033 72.73909 38059 ft 443 kts 301°
2026-04-24 10:28 44.26640 72.66952 38057 ft 442 kts 301°
2026-04-24 10:29 44.30227 72.60018 38055 ft 442 kts 301°
2026-04-24 10:29 44.33830 72.53043 38059 ft 443 kts 301°
2026-04-24 10:30 44.37421 72.46079 38064 ft 444 kts 301°
2026-04-24 10:30 44.41029 72.39069 38063 ft 443 kts 301°
2026-04-24 10:31 44.44601 72.32113 38063 ft 443 kts 300°
2026-04-24 10:31 44.48205 72.25076 38062 ft 443 kts 300°
2026-04-24 10:32 44.51774 72.18087 38059 ft 444 kts 300°
2026-04-24 10:32 44.55358 72.11053 38057 ft 444 kts 300°
2026-04-24 10:33 44.58947 72.03992 38055 ft 444 kts 300°
2026-04-24 10:33 44.62501 71.96983 38057 ft 444 kts 300°
2026-04-24 10:34 44.66085 71.89896 38056 ft 444 kts 300°
2026-04-24 10:34 44.69645 71.82843 38054 ft 445 kts 301°
2026-04-24 10:35 44.73210 71.75761 38056 ft 445 kts 301°
2026-04-24 10:35 44.76779 71.68658 38056 ft 445 kts 300°
2026-04-24 10:36 44.80337 71.61556 38055 ft 444 kts 300°
2026-04-24 10:36 44.83893 71.54438 38054 ft 445 kts 300°
2026-04-24 10:37 44.87430 71.47343 38053 ft 444 kts 300°
2026-04-24 10:37 44.90974 71.40213 38053 ft 444 kts 301°
2026-04-24 10:38 44.94492 71.33121 38054 ft 443 kts 300°
2026-04-24 10:38 44.98032 71.25966 38050 ft 442 kts 300°
2026-04-24 10:39 45.01530 71.18878 38053 ft 442 kts 300°
2026-04-24 10:39 45.05041 71.11748 38051 ft 443 kts 300°
2026-04-24 10:40 45.08542 71.04618 38049 ft 442 kts 300°
2026-04-24 10:40 45.12074 70.97402 38050 ft 445 kts 300°
2026-04-24 10:41 45.15579 70.90227 38056 ft 445 kts 300°
2026-04-24 10:41 45.19087 70.83031 38051 ft 443 kts 300°
2026-04-24 10:42 45.22592 70.75820 38050 ft 444 kts 300°
2026-04-24 10:42 45.26091 70.68609 38049 ft 444 kts 300°
2026-04-24 10:43 45.29580 70.61415 38050 ft 443 kts 300°
2026-04-24 10:43 45.33071 70.54211 38048 ft 443 kts 300°
2026-04-24 10:44 45.36554 70.47001 38051 ft 444 kts 300°
2026-04-24 10:44 45.40044 70.39754 38049 ft 444 kts 300°
2026-04-24 10:45 45.43537 70.32481 38047 ft 444 kts 300°
2026-04-24 10:45 45.46988 70.25281 38048 ft 444 kts 300°
2026-04-24 10:46 45.50476 70.17982 38047 ft 444 kts 300°
2026-04-24 10:46 45.53917 70.10765 38047 ft 444 kts 300°
2026-04-24 10:47 45.57394 70.03450 38044 ft 443 kts 300°
2026-04-24 10:47 45.60841 69.96183 38042 ft 444 kts 300°
2026-04-24 10:48 45.64306 69.88857 38042 ft 444 kts 300°
2026-04-24 10:48 45.67748 69.81562 38037 ft 444 kts 300°
2026-04-24 10:49 45.71193 69.74241 38029 ft 446 kts 300°
2026-04-24 10:49 45.74656 69.66864 38027 ft 445 kts 300°
2026-04-24 10:50 45.78083 69.59546 38026 ft 445 kts 300°
2026-04-24 10:50 45.81528 69.52171 38026 ft 445 kts 300°
2026-04-24 10:51 45.84966 69.44788 38027 ft 445 kts 300°
2026-04-24 10:51 45.88383 69.37433 38025 ft 444 kts 300°
2026-04-24 10:52 45.92385 69.28795 38020 ft 445 kts 299°
2026-04-24 10:52 45.95229 69.22640 38014 ft 446 kts 299°
2026-04-24 10:53 45.98650 69.15219 38010 ft 446 kts 299°
2026-04-24 10:53 46.02065 69.07791 38002 ft 446 kts 299°
2026-04-24 10:54 46.05501 69.00291 37995 ft 447 kts 299°
2026-04-24 10:54 46.08878 68.92873 37993 ft 446 kts 299°
2026-04-24 10:55 46.12285 68.85361 37997 ft 447 kts 299°
2026-04-24 10:55 46.15679 68.77857 37995 ft 447 kts 299°
2026-04-24 10:56 46.19064 68.70355 37996 ft 446 kts 299°
2026-04-24 10:56 46.22445 68.62844 37996 ft 446 kts 299°
2026-04-24 10:57 46.25800 68.55373 37992 ft 447 kts 299°
2026-04-24 10:57 46.29744 68.46562 37996 ft 448 kts 299°
2026-04-24 10:58 46.32553 68.40273 38087 ft 447 kts 299°
2026-04-24 10:58 46.35907 68.32745 37998 ft 446 kts 298°
2026-04-24 10:59 46.39283 68.25143 37998 ft 447 kts 298°
2026-04-24 10:59 46.42620 68.17612 37999 ft 447 kts 298°
2026-04-24 11:00 46.45961 68.10050 38001 ft 446 kts 298°
2026-04-24 11:00 46.49320 68.02426 38000 ft 447 kts 298°
2026-04-24 11:01 46.52659 67.94828 38002 ft 447 kts 298°
2026-04-24 11:01 46.56517 67.85976 38002 ft 446 kts 298°
2026-04-24 11:02 46.59234 67.79621 38001 ft 446 kts 298°
2026-04-24 11:02 46.63041 67.70659 38001 ft 446 kts 298°
2026-04-24 11:03 46.65754 67.64298 38001 ft 446 kts 298°
2026-04-24 11:03 46.69637 67.55386 38001 ft 447 kts 299°
2026-04-24 11:04 46.72416 67.49039 38004 ft 446 kts 299°
2026-04-24 11:04 46.75733 67.41431 38005 ft 447 kts 299°
2026-04-24 11:05 46.79624 67.32467 37999 ft 446 kts 298°
2026-04-24 11:05 46.82387 67.26077 37999 ft 447 kts 298°
2026-04-24 11:06 46.86212 67.17199 37999 ft 446 kts 298°
2026-04-24 11:06 46.88974 67.10767 37999 ft 446 kts 298°
2026-04-24 11:07 46.94331 66.97909 38005 ft 446 kts 297°
2026-04-24 11:07 46.97554 66.90142 37999 ft 448 kts 298°
2026-04-24 11:08 47.00808 66.82446 37999 ft 446 kts 298°
2026-04-24 11:08 47.03520 66.76045 38001 ft 446 kts 298°
2026-04-24 11:09 47.07333 66.67017 38000 ft 445 kts 298°
2026-04-24 11:09 47.10569 66.59318 37996 ft 445 kts 298°
2026-04-24 11:10 47.13280 66.52847 37988 ft 445 kts 298°
2026-04-24 11:10 47.16507 66.45126 37988 ft 445 kts 298°
2026-04-24 11:11 47.20277 66.36076 37984 ft 445 kts 298°
2026-04-24 11:11 47.22968 66.29593 37984 ft 446 kts 298°
2026-04-24 11:12 47.26712 66.20551 37985 ft 445 kts 298°
2026-04-24 11:12 47.29382 66.14088 37982 ft 444 kts 298°
2026-04-24 11:13 47.33135 66.04975 37983 ft 444 kts 298°
2026-04-24 11:13 47.36331 65.97189 37981 ft 444 kts 298°
2026-04-24 11:14 47.39496 65.89459 37981 ft 442 kts 298°
2026-04-24 11:14 47.42142 65.82976 37975 ft 443 kts 298°
2026-04-24 11:15 47.45832 65.73866 37975 ft 443 kts 297°
2026-04-24 11:15 47.48969 65.66074 37854 ft 442 kts 298°
2026-04-24 11:16 47.50532 65.62183 38069 ft 442 kts 298°
2026-04-24 11:16 47.52101 65.58273 37964 ft 441 kts 298°
2026-04-24 11:16 47.55222 65.50480 37967 ft 443 kts 298°
2026-04-24 11:17 47.58367 65.42606 37968 ft 444 kts 298°
2026-04-24 11:17 47.61501 65.34744 37966 ft 443 kts 297°
2026-04-24 11:18 47.64625 65.26880 37959 ft 443 kts 297°
2026-04-24 11:18 47.67740 65.19018 37958 ft 442 kts 297°
2026-04-24 11:19 47.70834 65.11187 37956 ft 442 kts 297°
2026-04-24 11:19 47.73929 65.03328 37952 ft 441 kts 297°
2026-04-24 11:20 47.77011 64.95475 37948 ft 441 kts 297°
2026-04-24 11:20 47.80092 64.87612 37945 ft 441 kts 297°
2026-04-24 11:21 47.82655 64.81068 37944 ft 441 kts 297°
2026-04-24 11:21 47.86255 64.71858 37944 ft 441 kts 297°
2026-04-24 11:22 47.89350 64.63911 37942 ft 442 kts 297°
2026-04-24 11:22 47.92411 64.56031 37942 ft 442 kts 297°
2026-04-24 11:23 47.95505 64.48042 37943 ft 443 kts 297°
2026-04-24 11:23 47.98561 64.40124 37942 ft 443 kts 297°
2026-04-24 11:24 48.01630 64.32153 37942 ft 442 kts 296°
2026-04-24 11:24 48.04680 64.24206 37945 ft 440 kts 296°
2026-04-24 11:25 48.07724 64.16250 37938 ft 441 kts 296°
2026-04-24 11:25 48.10759 64.08290 37941 ft 442 kts 296°
2026-04-24 11:26 48.13810 64.00266 37953 ft 442 kts 296°
2026-04-24 11:26 48.16846 63.92260 37944 ft 442 kts 296°
2026-04-24 11:27 48.19864 63.84277 37937 ft 442 kts 296°
2026-04-24 11:27 48.22864 63.76317 37934 ft 441 kts 296°
2026-04-24 11:28 48.25883 63.68280 37934 ft 441 kts 296°
2026-04-24 11:28 48.28385 63.61603 37929 ft 442 kts 296°
2026-04-24 11:29 48.31894 63.52213 37931 ft 441 kts 296°
2026-04-24 11:29 48.34887 63.44175 37935 ft 440 kts 296°
2026-04-24 11:30 48.37858 63.36171 37926 ft 441 kts 296°
2026-04-24 11:30 48.40823 63.28155 37924 ft 439 kts 296°
2026-04-24 11:31 48.43800 63.20086 37931 ft 440 kts 296°
2026-04-24 11:31 48.46748 63.12073 37923 ft 441 kts 296°
2026-04-24 11:32 48.49722 63.03963 37933 ft 440 kts 296°
2026-04-24 11:32 48.52668 62.95905 37929 ft 441 kts 296°
2026-04-24 11:33 48.55605 62.87848 37914 ft 440 kts 296°
2026-04-24 11:33 48.58545 62.79756 37914 ft 439 kts 296°
2026-04-24 11:34 48.61480 62.71660 37908 ft 440 kts 296°
2026-04-24 11:34 48.64669 62.63746 37899 ft 441 kts 301°
2026-04-24 11:35 48.68186 62.56125 37896 ft 443 kts 302°
2026-04-24 11:35 48.71767 62.48575 37895 ft 443 kts 302°
2026-04-24 11:36 48.75338 62.40998 37893 ft 443 kts 302°
2026-04-24 11:36 48.78886 62.33391 37890 ft 442 kts 301°
2026-04-24 11:37 48.82419 62.25753 37884 ft 442 kts 301°
2026-04-24 11:37 48.85926 62.18131 37881 ft 442 kts 301°
2026-04-24 11:38 48.89441 62.10464 37878 ft 443 kts 301°
2026-04-24 11:38 48.92971 62.02741 37872 ft 442 kts 301°
2026-04-24 11:39 48.96453 61.95100 37871 ft 442 kts 301°
2026-04-24 11:39 48.99949 61.87407 37868 ft 442 kts 301°
2026-04-24 11:40 49.03429 61.79729 37871 ft 443 kts 301°
2026-04-24 11:40 49.06913 61.72021 37864 ft 441 kts 301°
2026-04-24 11:41 49.10392 61.64299 37867 ft 442 kts 301°
2026-04-24 11:41 49.13866 61.56562 37861 ft 442 kts 301°
2026-04-24 11:42 49.17336 61.48818 37858 ft 441 kts 301°
2026-04-24 11:42 49.20771 61.41128 37849 ft 440 kts 300°
2026-04-24 11:43 49.24231 61.33361 37848 ft 440 kts 300°
2026-04-24 11:43 49.27660 61.25636 37841 ft 440 kts 300°
2026-04-24 11:44 49.31079 61.17916 37836 ft 439 kts 300°
2026-04-24 11:44 49.34508 61.10150 37830 ft 439 kts 299°
2026-04-24 11:45 49.37926 61.02383 37829 ft 439 kts 299°
2026-04-24 11:45 49.41354 60.94568 37829 ft 439 kts 299°
2026-04-24 11:46 49.44758 60.86794 37819 ft 439 kts 299°
2026-04-24 11:46 49.48168 60.78983 37810 ft 439 kts 299°
2026-04-24 11:47 49.51551 60.71212 37805 ft 439 kts 299°
2026-04-24 11:47 49.54955 60.63366 37800 ft 439 kts 299°
2026-04-24 11:48 49.58336 60.55551 37795 ft 439 kts 299°
2026-04-24 11:48 49.61733 60.47678 37789 ft 438 kts 298°
2026-04-24 11:49 49.65095 60.39861 37789 ft 440 kts 298°
2026-04-24 11:49 49.68474 60.31981 37785 ft 440 kts 298°
2026-04-24 11:50 49.71844 60.24100 37783 ft 440 kts 298°
2026-04-24 11:50 49.75205 60.16214 37779 ft 439 kts 298°
2026-04-24 11:51 49.78576 60.08284 37777 ft 439 kts 298°
2026-04-24 11:51 49.81925 60.00380 37776 ft 439 kts 298°
2026-04-24 11:52 49.85271 59.92462 37775 ft 440 kts 298°
2026-04-24 11:52 49.88604 59.84549 37777 ft 439 kts 297°
2026-04-24 11:53 49.91935 59.76616 37769 ft 441 kts 297°
2026-04-24 11:53 49.95266 59.68660 37768 ft 440 kts 297°
2026-04-24 11:54 49.98582 59.60715 37757 ft 440 kts 297°
2026-04-24 11:54 50.01909 59.52720 37748 ft 439 kts 297°
2026-04-24 11:55 50.05213 59.44755 37753 ft 440 kts 297°
2026-04-24 11:55 50.08537 59.36715 37751 ft 441 kts 297°
2026-04-24 11:56 50.11864 59.28653 37751 ft 441 kts 296°
2026-04-24 11:56 50.15183 59.20580 37760 ft 442 kts 296°
2026-04-24 11:57 50.18500 59.12487 37753 ft 442 kts 296°
2026-04-24 11:57 50.21798 59.04419 37765 ft 443 kts 296°
2026-04-24 11:58 50.25113 58.96279 37765 ft 443 kts 296°
2026-04-24 11:58 50.28409 58.88163 37745 ft 442 kts 296°
2026-04-24 11:59 50.31691 58.80056 37763 ft 443 kts 296°
2026-04-24 11:59 50.34966 58.71940 37751 ft 443 kts 296°
2026-04-24 12:00 50.38244 58.63796 37753 ft 441 kts 296°
2026-04-24 12:00 50.41508 58.55656 37751 ft 444 kts 296°
2026-04-24 12:01 50.44794 58.47433 37759 ft 446 kts 296°
2026-04-24 12:01 50.48083 58.39181 37769 ft 446 kts 296°
2026-04-24 12:02 50.51365 58.30923 37757 ft 445 kts 295°
2026-04-24 12:02 50.54631 58.22682 37753 ft 446 kts 295°
2026-04-24 12:03 50.57901 58.14402 37765 ft 447 kts 295°
2026-04-24 12:03 50.61166 58.06103 37767 ft 448 kts 295°
2026-04-24 12:04 50.64430 57.97786 37773 ft 448 kts 295°
2026-04-24 12:04 50.67705 57.89409 37770 ft 448 kts 295°
2026-04-24 12:05 50.70956 57.81069 37777 ft 449 kts 295°
2026-04-24 12:05 50.74208 57.72702 37775 ft 449 kts 295°
2026-04-24 12:06 50.77477 57.64262 37776 ft 449 kts 295°
2026-04-24 12:06 50.80731 57.55833 37783 ft 450 kts 295°
2026-04-24 12:07 50.83950 57.47471 37781 ft 449 kts 295°
2026-04-24 12:07 50.87201 57.38995 37864 ft 448 kts 295°
2026-04-24 12:08 50.90424 57.30567 37794 ft 446 kts 294°
2026-04-24 12:08 50.93647 57.22111 37805 ft 448 kts 294°
2026-04-24 12:09 50.96834 57.13717 37788 ft 448 kts 294°
2026-04-24 12:09 51.00048 57.05225 37796 ft 448 kts 294°
2026-04-24 12:10 51.03261 56.96704 37780 ft 450 kts 294°
2026-04-24 12:11 51.08086 56.83870 37787 ft 450 kts 294°
2026-04-24 12:11 51.11462 56.75412 37781 ft 453 kts 297°
2026-04-24 12:12 51.14939 56.67083 37795 ft 453 kts 297°
2026-04-24 12:12 51.18446 56.58683 37787 ft 453 kts 297°
2026-04-24 12:13 51.21897 56.50333 37797 ft 455 kts 297°
2026-04-24 12:13 51.25386 56.41823 37805 ft 456 kts 297°
2026-04-24 12:14 51.28824 56.33396 37798 ft 455 kts 296°
2026-04-24 12:14 51.32266 56.24912 37799 ft 456 kts 296°
2026-04-24 12:15 51.35709 56.16394 37801 ft 456 kts 296°
2026-04-24 12:15 51.39120 56.07932 37807 ft 456 kts 296°
2026-04-24 12:16 51.42554 55.99375 37805 ft 458 kts 296°
2026-04-24 12:16 51.45995 55.90781 37799 ft 457 kts 296°
2026-04-24 12:17 51.49410 55.82226 37806 ft 458 kts 296°
2026-04-24 12:17 51.52824 55.73647 37805 ft 456 kts 296°
2026-04-24 12:18 51.56224 55.65066 37805 ft 459 kts 296°
2026-04-24 12:18 51.59641 55.56412 37812 ft 459 kts 296°
2026-04-24 12:19 51.63049 55.47754 37810 ft 460 kts 296°
2026-04-24 12:19 51.66465 55.39046 37805 ft 461 kts 296°
2026-04-24 12:20 51.69891 55.30290 37805 ft 460 kts 296°
2026-04-24 12:20 51.73298 55.21552 37787 ft 461 kts 296°
2026-04-24 12:21 51.76684 55.12828 37794 ft 462 kts 296°
2026-04-24 12:21 51.80103 55.03992 37787 ft 462 kts 296°
2026-04-24 12:22 51.83484 54.95231 37787 ft 462 kts 296°
2026-04-24 12:22 51.86890 54.86369 37789 ft 463 kts 296°
2026-04-24 12:23 51.90286 54.77506 37786 ft 464 kts 296°
2026-04-24 12:23 51.93675 54.68629 37784 ft 464 kts 296°
2026-04-24 12:24 51.97063 54.59724 37772 ft 466 kts 296°
2026-04-24 12:24 52.00454 54.50778 37763 ft 466 kts 296°
2026-04-24 12:25 52.03839 54.41821 37758 ft 466 kts 296°
2026-04-24 12:25 52.07211 54.32866 37764 ft 466 kts 295°
2026-04-24 12:26 52.10587 54.23866 37761 ft 468 kts 296°
2026-04-24 12:26 52.13962 54.14835 37757 ft 470 kts 296°
2026-04-24 12:27 52.17340 54.05767 37756 ft 468 kts 296°
2026-04-24 12:27 52.20711 53.96690 37760 ft 469 kts 296°
2026-04-24 12:28 52.24066 53.87619 37751 ft 469 kts 296°
2026-04-24 12:28 52.26864 53.80033 37744 ft 467 kts 296°
2026-04-24 12:29 52.30755 53.69434 37744 ft 470 kts 296°
2026-04-24 12:29 52.34116 53.60246 37741 ft 469 kts 296°
2026-04-24 12:30 52.37446 53.51109 37735 ft 471 kts 296°
2026-04-24 12:30 52.40792 53.41896 37737 ft 471 kts 296°
2026-04-24 12:31 52.44143 53.32641 37735 ft 470 kts 296°
2026-04-24 12:31 52.47469 53.23418 37724 ft 470 kts 296°
2026-04-24 12:32 52.50777 53.14215 37725 ft 469 kts 295°
2026-04-24 12:32 52.54068 53.05023 37718 ft 471 kts 295°
2026-04-24 12:33 52.57377 52.95744 37718 ft 471 kts 296°
2026-04-24 12:33 52.60674 52.86468 37709 ft 471 kts 296°
2026-04-24 12:34 52.63946 52.77230 37705 ft 471 kts 296°
2026-04-24 12:34 52.67234 52.67905 37696 ft 473 kts 296°
2026-04-24 12:35 52.70541 52.58496 37686 ft 471 kts 296°
2026-04-24 12:35 52.73797 52.49201 37691 ft 471 kts 296°
2026-04-24 12:36 52.77067 52.39825 37671 ft 472 kts 296°
2026-04-24 12:36 52.80327 52.30446 37677 ft 470 kts 295°
2026-04-24 12:37 52.83570 52.21075 37674 ft 472 kts 295°
2026-04-24 12:37 52.86833 52.11607 37666 ft 472 kts 295°
2026-04-24 12:38 52.90075 52.02171 37661 ft 473 kts 295°
2026-04-24 12:38 52.93298 51.92750 37642 ft 474 kts 295°
2026-04-24 12:39 52.99750 51.73800 37635 ft 472 kts 295°
2026-04-24 12:40 53.02976 51.64271 37637 ft 473 kts 295°
2026-04-24 12:40 53.06193 51.54727 37641 ft 473 kts 295°
2026-04-24 12:41 53.09380 51.45235 37639 ft 475 kts 295°
2026-04-24 12:41 53.12603 51.35593 37631 ft 475 kts 295°
2026-04-24 12:42 53.15804 51.25990 37633 ft 474 kts 295°
2026-04-24 12:42 53.18990 51.16391 37622 ft 473 kts 295°
2026-04-24 12:43 53.22168 51.06780 37619 ft 473 kts 295°
2026-04-24 12:43 53.25323 50.97199 37618 ft 473 kts 295°
2026-04-24 12:44 53.28477 50.87585 37615 ft 472 kts 295°
2026-04-24 12:44 53.31621 50.77963 37616 ft 472 kts 295°
2026-04-24 12:45 53.34752 50.68342 37613 ft 473 kts 295°
2026-04-24 12:45 53.37874 50.58712 37604 ft 472 kts 294°
2026-04-24 12:46 53.40992 50.49054 37597 ft 474 kts 294°
2026-04-24 12:46 53.44109 50.39365 37593 ft 473 kts 294°
2026-04-24 12:47 53.47212 50.29680 37593 ft 472 kts 294°
2026-04-24 12:47 53.50321 50.19996 37586 ft 472 kts 295°
2026-04-24 12:48 53.53755 50.10570 37586 ft 476 kts 299°
2026-04-24 12:48 53.57451 50.01292 37581 ft 476 kts 300°
2026-04-24 12:49 53.61149 49.92145 37578 ft 476 kts 300°
2026-04-24 12:49 53.64866 49.82887 37571 ft 476 kts 300°
2026-04-24 12:50 53.68519 49.73701 37569 ft 476 kts 300°
2026-04-24 12:50 53.72195 49.64385 37560 ft 476 kts 300°
2026-04-24 12:51 53.75840 49.55097 37550 ft 476 kts 300°
2026-04-24 12:51 53.79487 49.45759 37553 ft 477 kts 300°
2026-04-24 12:52 53.83122 49.36418 37555 ft 477 kts 300°
2026-04-24 12:52 53.86769 49.27008 37555 ft 477 kts 299°
2026-04-24 12:53 53.90405 49.17595 37545 ft 478 kts 299°
2026-04-24 12:53 53.94029 49.08178 37542 ft 477 kts 299°
2026-04-24 12:54 53.97627 48.98790 37535 ft 476 kts 299°
2026-04-24 12:54 54.01231 48.89338 37520 ft 476 kts 299°
2026-04-24 12:55 54.04805 48.79926 37515 ft 478 kts 299°
2026-04-24 12:55 54.08397 48.70433 37506 ft 479 kts 299°
2026-04-24 12:56 54.11993 48.60896 37504 ft 478 kts 299°
2026-04-24 12:56 54.15596 48.51302 37508 ft 479 kts 299°
2026-04-24 12:57 54.19165 48.41763 37513 ft 479 kts 299°
2026-04-24 12:57 54.22749 48.32148 37508 ft 479 kts 298°
2026-04-24 12:58 54.26306 48.22571 37503 ft 479 kts 298°
2026-04-24 12:58 54.29793 48.12863 37498 ft 479 kts 297°
2026-04-24 12:59 54.33178 48.03089 37490 ft 478 kts 297°
2026-04-24 12:59 54.36558 47.93251 37482 ft 478 kts 297°
2026-04-24 13:00 54.39936 47.83416 37484 ft 479 kts 297°
2026-04-24 13:00 54.43296 47.73628 37476 ft 480 kts 297°
2026-04-24 13:01 54.46682 47.63748 37470 ft 480 kts 297°
2026-04-24 13:01 54.50058 47.53863 37460 ft 481 kts 297°
2026-04-24 13:02 54.53426 47.43963 37460 ft 481 kts 297°
2026-04-24 13:02 54.56796 47.34018 37459 ft 481 kts 297°
2026-04-24 13:03 54.60158 47.24059 37458 ft 480 kts 297°
2026-04-24 13:03 54.63497 47.14129 37456 ft 479 kts 297°
2026-04-24 13:04 54.66823 47.04190 37458 ft 480 kts 297°
2026-04-24 13:04 54.70132 46.94173 37464 ft 481 kts 296°
2026-04-24 13:05 54.73389 46.84098 37461 ft 481 kts 296°
2026-04-24 13:05 54.76608 46.74056 37463 ft 481 kts 296°
2026-04-24 13:06 54.79855 46.63914 37449 ft 482 kts 297°
2026-04-24 13:06 54.83425 46.54128 37447 ft 484 kts 303°
2026-04-24 13:07 54.87514 46.44802 37447 ft 484 kts 306°
2026-04-24 13:07 54.91702 46.35725 37445 ft 484 kts 307°
2026-04-24 13:08 54.95925 46.26563 37446 ft 485 kts 306°
2026-04-24 13:08 55.00102 46.17393 37442 ft 484 kts 306°
2026-04-24 13:09 55.06316 46.03578 37442 ft 483 kts 306°
2026-04-24 13:09 55.10434 45.94341 37441 ft 483 kts 306°
2026-04-24 13:10 55.14560 45.85040 37437 ft 484 kts 306°
2026-04-24 13:10 55.18653 45.75779 37430 ft 483 kts 306°
2026-04-24 13:11 55.22736 45.66508 37432 ft 483 kts 306°
2026-04-24 13:11 55.26166 45.58692 37428 ft 483 kts 306°
2026-04-24 13:12 55.30913 45.47837 37422 ft 482 kts 306°
2026-04-24 13:12 55.34981 45.38493 37425 ft 482 kts 306°
2026-04-24 13:13 55.39020 45.29182 37429 ft 482 kts 305°
2026-04-24 13:13 55.43079 45.19788 37428 ft 482 kts 306°
2026-04-24 13:14 55.47117 45.10407 37427 ft 481 kts 306°
2026-04-24 13:14 55.51136 45.01035 37423 ft 481 kts 306°
2026-04-24 13:15 55.55058 44.91462 37422 ft 480 kts 301°
2026-04-24 13:15 55.57695 44.80813 37415 ft 477 kts 284°
2026-04-24 13:16 55.59135 44.69392 37411 ft 477 kts 280°
2026-04-24 13:16 55.60313 44.57838 37405 ft 477 kts 279°
2026-04-24 13:17 55.61462 44.46310 37414 ft 477 kts 279°
2026-04-24 13:17 55.62635 44.34796 37408 ft 477 kts 279°
2026-04-24 13:18 55.63821 44.23298 37403 ft 477 kts 279°
2026-04-24 13:18 55.65017 44.11719 37404 ft 477 kts 279°
2026-04-24 13:19 55.66201 44.00195 37401 ft 477 kts 279°
2026-04-24 13:19 55.67375 43.88671 37407 ft 477 kts 279°
2026-04-24 13:20 55.68539 43.77138 37409 ft 477 kts 279°
2026-04-24 13:20 55.69687 43.65641 37418 ft 476 kts 280°
2026-04-24 13:21 55.70833 43.54045 37414 ft 476 kts 280°
2026-04-24 13:21 55.71962 43.42500 37414 ft 478 kts 280°
2026-04-24 13:22 55.73085 43.30909 37414 ft 479 kts 279°
2026-04-24 13:22 55.74199 43.19291 37417 ft 477 kts 279°
2026-04-24 13:23 55.75298 43.07699 37424 ft 477 kts 279°
2026-04-24 13:23 55.76384 42.96126 37430 ft 478 kts 279°
2026-04-24 13:24 55.77466 42.84472 37425 ft 478 kts 279°
2026-04-24 13:24 55.78531 42.72882 37420 ft 478 kts 279°
2026-04-24 13:25 55.79589 42.61242 37426 ft 478 kts 279°
2026-04-24 13:25 55.80634 42.49619 37434 ft 477 kts 279°
2026-04-24 13:26 55.81495 42.39944 37433 ft 477 kts 280°
2026-04-24 13:26 55.82693 42.26335 37438 ft 478 kts 279°
2026-04-24 13:27 55.83699 42.14761 37450 ft 477 kts 279°
2026-04-24 13:27 55.84701 42.03103 37451 ft 479 kts 279°
2026-04-24 13:28 55.85700 41.91340 37447 ft 481 kts 279°
2026-04-24 13:28 55.86543 41.79626 37452 ft 480 kts 275°
2026-04-24 13:29 55.86619 41.67751 37452 ft 481 kts 269°
2026-04-24 13:29 55.86272 41.55833 37457 ft 481 kts 267°
2026-04-24 13:30 55.85837 41.44034 37467 ft 480 kts 267°
2026-04-24 13:30 55.85408 41.32205 37468 ft 481 kts 267°
2026-04-24 13:31 55.84993 41.20346 37469 ft 481 kts 267°
2026-04-24 13:31 55.84581 41.08473 37485 ft 481 kts 267°
2026-04-24 13:32 55.84166 40.96610 37488 ft 481 kts 267°
2026-04-24 13:32 55.83743 40.84757 37478 ft 481 kts 268°
2026-04-24 13:33 55.83308 40.72924 37477 ft 481 kts 268°
2026-04-24 13:33 55.82864 40.61132 37482 ft 481 kts 268°
2026-04-24 13:34 55.82396 40.49244 37491 ft 481 kts 268°
2026-04-24 13:34 55.81909 40.37396 37489 ft 481 kts 268°
2026-04-24 13:35 55.81413 40.25600 37487 ft 481 kts 267°
2026-04-24 13:35 55.80904 40.13765 37492 ft 481 kts 267°
2026-04-24 13:36 55.80384 40.01945 37406 ft 479 kts 267°
2026-04-24 13:36 55.80125 39.96130 37016 ft 475 kts 267°
2026-04-24 13:36 55.79859 39.90241 36316 ft 478 kts 267°
2026-04-24 13:37 55.79593 39.84393 35623 ft 479 kts 268°
2026-04-24 13:37 55.79317 39.78552 34982 ft 479 kts 267°
2026-04-24 13:37 55.78984 39.72681 34277 ft 480 kts 266°
2026-04-24 13:37 55.78607 39.66848 33556 ft 482 kts 266°
2026-04-24 13:38 55.78200 39.60932 32914 ft 482 kts 266°
2026-04-24 13:38 55.77782 39.55016 32429 ft 480 kts 266°
2026-04-24 13:38 55.77364 39.49147 31910 ft 479 kts 265°
2026-04-24 13:38 55.76950 39.43335 31375 ft 478 kts 266°
2026-04-24 13:39 55.76538 39.37529 30903 ft 477 kts 265°
2026-04-24 13:39 55.76122 39.31676 30425 ft 473 kts 265°
2026-04-24 13:39 55.75716 39.26022 30164 ft 451 kts 265°
2026-04-24 13:39 55.75323 39.20570 29726 ft 437 kts 264°
2026-04-24 13:40 55.74945 39.15325 29569 ft 425 kts 264°
2026-04-24 13:40 55.74574 39.10173 29256 ft 418 kts 264°
2026-04-24 13:40 55.74209 39.05096 28847 ft 414 kts 264°
2026-04-24 13:40 55.73844 39.00008 28426 ft 411 kts 264°
2026-04-24 13:41 55.73569 38.94964 28033 ft 406 kts 268°
2026-04-24 13:41 55.73521 38.89991 27593 ft 403 kts 272°
2026-04-24 13:41 55.73657 38.85083 27222 ft 398 kts 274°
2026-04-24 13:41 55.73883 38.80153 26773 ft 396 kts 275°
2026-04-24 13:42 55.74140 38.75351 26361 ft 393 kts 275°
2026-04-24 13:42 55.74404 38.70571 25992 ft 387 kts 275°
2026-04-24 13:42 55.74662 38.65856 25446 ft 387 kts 274°
2026-04-24 13:42 55.75027 38.61142 24940 ft 386 kts 281°
2026-04-24 13:43 55.75808 38.56576 24326 ft 387 kts 291°
2026-04-24 13:43 55.77004 38.52341 23851 ft 384 kts 299°
2026-04-24 13:43 55.78421 38.48358 23365 ft 380 kts 306°
2026-04-24 13:43 55.79901 38.44600 23191 ft 368 kts 307°
2026-04-24 13:44 55.81385 38.40945 22812 ft 361 kts 307°
2026-04-24 13:44 55.82838 38.37394 22591 ft 351 kts 307°
2026-04-24 13:44 55.84291 38.33986 22412 ft 340 kts 307°
2026-04-24 13:44 55.85746 38.30694 21938 ft 339 kts 308°
2026-04-24 13:45 55.87212 38.27408 21452 ft 338 kts 307°
2026-04-24 13:45 55.88669 38.24128 20956 ft 337 kts 307°
2026-04-24 13:45 55.90112 38.20853 20489 ft 336 kts 307°
2026-04-24 13:45 55.91526 38.17619 20021 ft 335 kts 306°
2026-04-24 13:46 55.92954 38.14336 19604 ft 332 kts 306°
2026-04-24 13:46 55.94421 38.11187 19090 ft 333 kts 311°
2026-04-24 13:46 55.96063 38.08311 18677 ft 331 kts 315°
2026-04-24 13:46 55.97771 38.05581 18210 ft 330 kts 316°
2026-04-24 13:47 55.99494 38.02886 17684 ft 331 kts 317°
2026-04-24 13:47 56.01216 38.00161 17260 ft 328 kts 316°
2026-04-24 13:47 56.02884 37.97465 16849 ft 325 kts 316°
2026-04-24 13:47 56.04558 37.94710 16466 ft 321 kts 315°
2026-04-24 13:48 56.06184 37.92000 16042 ft 319 kts 315°
2026-04-24 13:48 56.07798 37.89293 15630 ft 317 kts 315°
2026-04-24 13:48 56.09377 37.86635 15233 ft 314 kts 316°
2026-04-24 13:48 56.10965 37.83958 14821 ft 311 kts 316°
2026-04-24 13:49 56.12539 37.81306 14414 ft 309 kts 316°
2026-04-24 13:49 56.14093 37.78685 14008 ft 306 kts 317°
2026-04-24 13:49 56.15651 37.76052 13601 ft 304 kts 317°
2026-04-24 13:49 56.17165 37.73493 13245 ft 300 kts 317°
2026-04-24 13:50 56.18689 37.70917 12847 ft 298 kts 317°
2026-04-24 13:50 56.20176 37.68402 12459 ft 295 kts 317°
2026-04-24 13:50 56.21658 37.65890 12066 ft 293 kts 317°
2026-04-24 13:50 56.23132 37.63392 11677 ft 291 kts 318°
2026-04-24 13:51 56.24601 37.60901 11249 ft 290 kts 318°
2026-04-24 13:51 56.26053 37.58433 10869 ft 287 kts 318°
2026-04-24 13:51 56.27505 37.55962 10504 ft 284 kts 319°
2026-04-24 13:51 56.28909 37.53558 10125 ft 282 kts 317°
2026-04-24 13:52 56.29781 37.51807 9854 ft 282 kts 310°
2026-04-24 13:52 56.30717 37.47475 9516 ft 281 kts 277°
2026-04-24 13:52 56.30468 37.44004 9236 ft 284 kts 257°
2026-04-24 13:52 56.29635 37.40752 8861 ft 287 kts 244°
2026-04-24 13:53 56.28553 37.37763 8521 ft 286 kts 240°
2026-04-24 13:53 56.27403 37.34831 8176 ft 285 kts 237°
2026-04-24 13:53 56.26040 37.32183 7791 ft 289 kts 222°
2026-04-24 13:53 56.24291 37.30545 7447 ft 293 kts 195°
2026-04-24 13:54 56.22271 37.30494 7108 ft 293 kts 168°
2026-04-24 13:54 56.20312 37.31388 6785 ft 290 kts 163°
2026-04-24 13:54 56.18367 37.32008 6637 ft 280 kts 183°
2026-04-24 13:54 56.16573 37.31064 6570 ft 261 kts 218°
2026-04-24 13:55 56.15408 37.28762 6582 ft 246 kts 247°
2026-04-24 13:55 56.14837 37.25942 6555 ft 241 kts 263°
2026-04-24 13:55 56.14485 37.23005 6296 ft 241 kts 263°
2026-04-24 13:55 56.14097 37.20065 5995 ft 242 kts 261°
2026-04-24 13:56 56.13681 37.17160 5733 ft 241 kts 261°
2026-04-24 13:56 56.13260 37.14243 5442 ft 241 kts 261°
2026-04-24 13:56 56.12845 37.11359 5176 ft 239 kts 261°
2026-04-24 13:56 56.12362 37.08534 5008 ft 238 kts 249°
2026-04-24 13:57 56.11311 37.06186 5019 ft 247 kts 223°
2026-04-24 13:57 56.09910 37.04379 4981 ft 252 kts 218°
2026-04-24 13:57 56.08454 37.02596 4725 ft 252 kts 219°
2026-04-24 13:57 56.07030 37.00740 4391 ft 254 kts 221°
2026-04-24 13:58 56.05636 36.98838 4169 ft 250 kts 221°
2026-04-24 13:58 56.04287 36.96973 4170 ft 243 kts 222°
2026-04-24 13:58 56.02959 36.95129 4117 ft 239 kts 222°
2026-04-24 13:58 56.01667 36.93343 4062 ft 230 kts 221°
2026-04-24 13:59 56.00814 36.92277 4038 ft 224 kts 215°
2026-04-24 13:59 55.98888 36.91414 3959 ft 214 kts 169°
2026-04-24 13:59 55.97547 36.92488 3974 ft 215 kts 141°
2026-04-24 13:59 55.96268 36.94206 3966 ft 243 kts 141°
2026-04-24 14:00 55.94859 36.95976 3958 ft 244 kts 143°
2026-04-24 14:00 55.93491 36.97628 3959 ft 230 kts 143°
2026-04-24 14:00 55.92258 36.99293 3963 ft 218 kts 132°
2026-04-24 14:00 55.91479 37.01517 3969 ft 209 kts 97°
2026-04-24 14:01 55.91491 37.04011 3981 ft 198 kts 70°
2026-04-24 14:01 55.91874 37.06353 3965 ft 197 kts 67°
2026-04-24 14:01 55.92234 37.08697 3963 ft 198 kts 70°
2026-04-24 14:01 55.92556 37.11082 3952 ft 197 kts 70°
2026-04-24 14:02 55.92892 37.13423 3738 ft 194 kts 68°
2026-04-24 14:02 55.93251 37.15741 3418 ft 195 kts 68°
2026-04-24 14:02 55.93599 37.18020 3080 ft 189 kts 68°
2026-04-24 14:02 55.93938 37.20274 2747 ft 182 kts 68°
2026-04-24 14:03 55.94276 37.22483 2551 ft 188 kts 66°
2026-04-24 14:03 55.94623 37.24749 2282 ft 189 kts 67°
2026-04-24 14:03 55.94954 37.26982 2030 ft 185 kts 68°
2026-04-24 14:03 55.95272 37.29120 1775 ft 177 kts 67°
2026-04-24 14:04 55.95582 37.31128 1504 ft 161 kts 68°
2026-04-24 14:04 55.95862 37.32989 1328 ft 148 kts 67°
2026-04-24 14:04 55.96138 37.34812 1134 ft 157 kts 67°
2026-04-24 14:04 55.96432 37.36681 981 ft 146 kts 68°
2026-04-24 14:05 55.96671 37.38369 726 ft 135 kts 68°
2026-04-24 14:05 55.96932 37.39912 617 ft 121 kts 76°
2026-04-24 14:05 55.97113 37.40937 617 ft 49 kts 68°
2026-04-24 14:05 55.97176 37.41205 618 ft 0 kts 64°